COSMOS 1670 DEB, 44569

Orbit data source: Space-Track

COSMOS 1670 DEB, 44569 is space debris in LEO originally from a launch on Thu, 01 Aug 1985 UTC launched from the Tyuratam Missile And Space Complex (TTMTR). Debris objects in space refer to the collection of defunct objects orbiting the Earth. Examples of debris include non-operational satellites, rocket bodies, and fragments generated from explosions, collisions, or faulty payload assembly.

Loading next visibility...
Identifier
44569, 1985-064F
Orbit
LEO
Country
Flag of CISCIS
Related business
Manufacturer
Unknown
Mission
Spacecraft
Bus & Motor
Unknown
Mass
Unknown
Launch date (UTC)
1985-08-01 (41 years ago)
Launch vehicle
Unknown
Launch site
Tyuratam Missile And Space Complex (TTMTR)
Object type
Payload
Rocket body
Debris
Shape & HBR
Unknown shape, 0.1 m
Radar Cross Section
Small (<0.1 m²)

Expand to show TLE details & history
Last TLE update: 16 hours ago

TLE from 16 hours ago
0 COSMOS 1670 DEB
1 44569U 85064F   26034.42543139  .00039663  00000-0  83843-2 0  9992
2 44569  64.9037  18.5040 0021955  14.0760  65.2400 14.58927483 86582
Epoch: 2026-02-03T10:12Z
TLE epoch observation values (Epoch: 2026-02-03T10:12:37.272Z)
Latitude
63.0642°
Longitude
158.20398°
Altitude
699.996 km
Speed
7.516 km/s
True Right ascension
05h 39m 51s
True Declination
62° 55' 26"
Sunlit
Object was in full shadow at epoch
Visualization orbit readout
Latitude
Unknown
Longitude
Unknown
Altitude
Unknown
Speed
Unknown
Apparent Right ascension
Unknown
Apparent Declination
Unknown
Sunlit
N/A
Visualization observer readout
Local Sidereal Time
04:25:22
Azimuth
Unknown
Elevation
Unknown
Doppler factor
Unknown
Orbital elements
Apogee altitude
710.74 km
Perigee altitude
679.681 km
Semi-major axis
7,073.348 km
Eccentricity
0.0022
Inclination
64.9037°
RAAN
18.504°
Arg. of periapsis
14.076°
True anomaly
65.46872°
Mean anomaly
65.24°
Eccentric anomaly
65.35433°
Mean motion
3.64843 °/min
Orbital period
98.67 mins
BSTAR
0.0083843
Loading maneuver chart data...
Computing Atmospheric mass density...
Loading historical data...
Loading historical data...
Loading historical data...
Loading historical data...
Loading historical data...
Loading historical data...
Loading historical data...

Documentation

Showing up to 5 results
|